STARLINK-31535, 59504

Orbit data source: Space-Track

STARLINK-31535, 59504 is a payload satellite owned by SpaceX/Seattle (US) in LEO that was launched on Sat, 13 Apr 2024 UTC via an FALCON 9 launch vehicle from the Air Force Eastern Test Range (AFETR). Payload-class satellites include a variety of spacecraft equipped with specific instruments for various scientific and technological missions. These include communications satellites like Starlink; space stations such as the ISS; scientific satellites like the Hubble; Earth observation satellites from companies like Planet Labs, Umbra, and HawkEye 360; GPS; miniature CubeSats for education and research; and military/defense satellites.

Loading next visibility...
Identifier
59504, 2024-071W
Orbit
LEO
Country
Flag of USUS
Related business
Manufacturer
SpaceX/Seattle
Mission
Operational Commercial Communications
Bus & Motor
STARLINK V2M, Unknown motor
Mass
730 kg wet, ~700 kg dry
Launch date (UTC)
2024-04-13 (2 years ago)
Launch vehicle
FALCON 9
Launch site
Air Force Eastern Test Range (AFETR)
Object type
Payload
Rocket body
Debris
Shape & HBR
Box + 2 Pan, 17.7 m
Radar Cross Section
33.884 m², Large (>1 m²)

Expand to show TLE details & history
Last TLE update: 2 days ago

TLE from 2 days ago
0 STARLINK-31535
1 59504U 24071W   26171.20131939  .00000364  00000-0  22759-4 0  9994
2 59504  43.0035 128.5775 0001201 275.7653  84.3062 15.27577172123793
Epoch: 2026-06-20T04:49Z
TLE epoch observation values (Epoch: 2026-06-20T04:49:53.995Z)
Latitude
0.00001°
Longitude
147.68319°
Altitude
482.752 km
Speed
7.626 km/s
True Right ascension
08h 34m 18s
True Declination
0° 00' 00"
Sunlit
Object was in daylight at epoch
Visualization orbit readout
Latitude
Unknown
Longitude
Unknown
Altitude
Unknown
Speed
Unknown
Apparent Right ascension
Unknown
Apparent Declination
Unknown
Sunlit
N/A
Visualization observer readout
Local Sidereal Time
21:26:16
Azimuth
Unknown
Elevation
Unknown
Doppler factor
Unknown
Orbital elements
Apogee altitude
485.826 km
Perigee altitude
484.178 km
Semi-major axis
6,863.139 km
Eccentricity
0.00012
Inclination
43.0035°
RAAN
128.5775°
Arg. of periapsis
275.7653°
True anomaly
84.31989°
Mean anomaly
84.3062°
Eccentric anomaly
84.31305°
Mean motion
3.81732 °/min
Orbital period
94.31 mins
BSTAR
0.000022759
Loading maneuver chart data...
Computing Atmospheric mass density...
Loading historical data...
Loading historical data...
Loading historical data...
Loading historical data...
Loading historical data...
Loading historical data...
Loading historical data...

Documentation

Showing up to 5 results
|